| time (UTC) | temp F | wind direction | speed knots | gust knots | rain 1hr in | rain 24hr in | rain mn in | humidity % | barometer mb |
| 20260504215234 | 72 | 279 | 2.6 | 5.2 | 0.00 | 0.00 | 0.00 | 49 | 1009.9 |
| 20260504214730 | 72 | 243 | 4.3 | 7.8 | 0.00 | 0.00 | 0.00 | 47 | 1010.0 |
| 20260504214226 | 71 | 257 | 3.5 | 7.0 | 0.00 | 0.00 | 0.00 | 48 | 1010.0 |
| 20260504213723 | 72 | 272 | 3.5 | 9.6 | 0.00 | 0.00 | 0.00 | 47 | 1010.1 |
| 20260504213220 | 72 | 301 | 2.6 | 6.1 | 0.00 | 0.00 | 0.00 | 46 | 1010.0 |
| 20260504212717 | 72 | 246 | 7.0 | 9.6 | 0.00 | 0.00 | 0.00 | 46 | 1010.0 |
| 20260504212214 | 73 | 255 | 3.5 | 7.0 | 0.00 | 0.00 | 0.00 | 46 | 1009.9 |
| 20260504211711 | 74 | 225 | 4.3 | 8.7 | 0.00 | 0.00 | 0.00 | 45 | 1009.8 |
| 20260504211207 | 74 | 313 | 5.2 | 7.8 | 0.00 | 0.00 | 0.00 | 44 | 1009.6 |
| 20260504210704 | 74 | 317 | 1.7 | 8.7 | 0.00 | 0.00 | 0.00 | 46 | 1009.4 |
| 20260504210201 | 75 | 297 | 5.2 | 7.0 | 0.00 | 0.00 | 0.00 | 45 | 1009.3 |
| 20260504205658 | 75 | 240 | 3.5 | 3.5 | 0.00 | 0.00 | 0.00 | 44 | 1009.5 |
| 20260504205155 | 73 | 247 | 3.5 | 7.8 | 0.00 | 0.00 | 0.00 | 47 | 1009.6 |
| 20260504204654 | 73 | 315 | 4.3 | 7.0 | 0.00 | 0.00 | 0.00 | 47 | 1009.7 |
| 20260504204153 | 73 | 313 | 4.3 | 8.7 | 0.00 | 0.00 | 0.00 | 45 | 1009.8 |
| 20260504203651 | 73 | 294 | 5.2 | 7.0 | 0.00 | 0.00 | 0.00 | 45 | 1009.8 |
| 20260504203148 | 73 | 181 | 1.7 | 3.5 | 0.00 | 0.00 | 0.00 | 46 | 1009.6 |
| 20260504202643 | 73 | 240 | 0.9 | 6.1 | 0.00 | 0.00 | 0.00 | 47 | 1009.7 |
| 20260504202140 | 72 | 211 | 1.7 | 2.6 | 0.00 | 0.00 | 0.00 | 50 | 1009.9 |
| 20260504201637 | 71 | 235 | 4.3 | 8.7 | 0.00 | 0.00 | 0.00 | 49 | 1009.9 |
| 20260504201135 | 71 | 323 | 1.7 | 5.2 | 0.00 | 0.00 | 0.00 | 48 | 1010.0 |
| 20260504200632 | 71 | 310 | 3.5 | 6.1 | 0.00 | 0.00 | 0.00 | 48 | 1010.1 |
| 20260504200128 | 71 | 261 | 2.6 | 5.2 | 0.00 | 0.00 | 0.00 | 49 | 1010.2 |
| 20260504195624 | 71 | 280 | 2.6 | 11.3 | 0.00 | 0.00 | 0.00 | 49 | 1010.3 |
| 20260504195121 | 72 | 314 | 4.3 | 6.1 | 0.00 | 0.00 | 0.00 | 48 | 1010.1 |
| 20260504194618 | 71 | 234 | 4.3 | 6.1 | 0.00 | 0.00 | 0.00 | 47 | 1010.1 |
| 20260504194114 | 72 | 258 | 2.6 | 6.1 | 0.00 | 0.00 | 0.00 | 48 | 1010.2 |
| 20260504193610 | 72 | 312 | 7.0 | 12.2 | 0.00 | 0.00 | 0.00 | 49 | 1010.2 |
| 20260504193109 | 73 | 314 | 3.5 | 8.7 | 0.00 | 0.00 | 0.00 | 48 | 1010.3 |
| 20260504192606 | 72 | 257 | 3.5 | 7.0 | 0.00 | 0.00 | 0.00 | 46 | 1010.2 |
| 20260504192104 | 72 | 264 | 7.0 | 11.3 | 0.00 | 0.00 | 0.00 | 47 | 1010.5 |
| 20260504191603 | 72 | 274 | 6.1 | 7.8 | 0.00 | 0.00 | 0.00 | 50 | 1010.4 |
| 20260504191058 | 71 | 166 | 0.9 | 7.0 | 0.00 | 0.00 | 0.00 | 46 | 1010.6 |
| 20260504190554 | 71 | 299 | 6.1 | 8.7 | 0.00 | 0.00 | 0.00 | 47 | 1010.4 |
| 20260504190050 | 71 | 155 | 1.7 | 5.2 | 0.00 | 0.00 | 0.00 | 45 | 1010.3 |
| 20260504185548 | 72 | 194 | 6.1 | 12.2 | 0.00 | 0.00 | 0.00 | 45 | 1010.3 |
| 20260504185044 | 72 | 221 | 1.7 | 8.7 | 0.00 | 0.00 | 0.00 | 43 | 1010.4 |
| 20260504184539 | 72 | 311 | 3.5 | 12.2 | 0.00 | 0.00 | 0.00 | 47 | 1010.3 |
| 20260504184035 | 71 | 311 | 3.5 | 11.3 | 0.00 | 0.00 | 0.00 | 47 | 1010.2 |
| 20260504183532 | 71 | 2 | 2.6 | 7.8 | 0.00 | 0.00 | 0.00 | 48 | 1010.3 |
| 20260504183030 | 71 | 273 | 4.3 | 8.7 | 0.00 | 0.00 | 0.00 | 48 | 1010.6 |
| 20260504182526 | 71 | 315 | 12.2 | 15.6 | 0.00 | 0.00 | 0.00 | 46 | 1010.4 |
| 20260504182024 | 71 | 292 | 6.1 | 14.8 | 0.00 | 0.00 | 0.00 | 50 | 1010.5 |
| 20260504181521 | 71 | 187 | 3.5 | 6.1 | 0.00 | 0.00 | 0.00 | 48 | 1010.5 |
| 20260504181020 | 70 | 256 | 2.6 | 9.6 | 0.00 | 0.00 | 0.00 | 46 | 1010.5 |
| 20260504180518 | 71 | 309 | 6.1 | 20.0 | 0.00 | 0.00 | 0.00 | 48 | 1010.7 |
| 20260504180017 | 70 | 187 | 4.3 | 7.0 | 0.00 | 0.00 | 0.00 | 48 | 1010.9 |
| 20260504175513 | 69 | 304 | 9.6 | 12.2 | 0.00 | 0.00 | 0.00 | 50 | 1010.8 |
| 20260504175010 | 69 | 214 | 4.3 | 7.8 | 0.00 | 0.00 | 0.00 | 49 | 1011.1 |
| 20260504174508 | 69 | 306 | 3.5 | 7.8 | 0.00 | 0.00 | 0.00 | 48 | 1011.1 |
| 20260504174005 | 69 | 269 | 1.7 | 11.3 | 0.00 | 0.00 | 0.00 | 48 | 1011.3 |
| 20260504173501 | 69 | 261 | 5.2 | 13.9 | 0.00 | 0.00 | 0.00 | 52 | 1011.2 |
| 20260504172959 | 68 | 311 | 11.3 | 13.9 | 0.00 | 0.00 | 0.00 | 51 | 1011.3 |
| 20260504172455 | 69 | 312 | 3.5 | 13.0 | 0.00 | 0.00 | 0.00 | 50 | 1011.3 |
| 20260504171951 | 68 | 314 | 7.8 | 11.3 | 0.00 | 0.00 | 0.00 | 52 | 1011.4 |
| 20260504160135 | 64 | 295 | 3.5 | 6.1 | 0.00 | 0.00 | 0.00 | 56 | 1012.9 |
| 20260504151102 | 62 | 177 | 2.6 | 7.8 | 0.00 | 0.00 | 0.00 | 56 | 1013.5 |
| 20260504150601 | 63 | 331 | 12.2 | 13.0 | 0.00 | 0.00 | 0.00 | 57 | 1013.5 |
| 20260504141026 | 62 | 309 | 7.0 | 14.8 | 0.00 | 0.00 | 0.00 | 51 | 1013.6 |
| 20260504140523 | 62 | 297 | 2.6 | 8.7 | 0.00 | 0.00 | 0.00 | 50 | 1013.4 |
| 20260504130447 | 58 | 262 | 4.3 | 6.1 | 0.00 | 0.00 | 0.00 | 55 | 1013.4 |
| 20260504110334 | 44 | 127 | 0.9 | 1.7 | 0.00 | 0.00 | 0.00 | 94 | 1013.8 |
| 20260504100252 | 46 | 341 | 0.0 | 0.0 | 0.00 | 0.00 | 0.00 | 90 | 1014.0 |
| 20260504081645 | 47 | 95 | 0.0 | 0.0 | 0.00 | 0.00 | 0.00 | 87 | 1014.7 |
| 20260504081141 | 47 | 95 | 0.0 | 0.0 | 0.00 | 0.00 | 0.00 | 87 | 1014.7 |
| 20260504080638 | 47 | 95 | 0.0 | 0.0 | 0.00 | 0.00 | 0.00 | 87 | 1014.7 |
| 20260504080134 | 47 | 95 | 0.0 | 0.0 | 0.00 | 0.00 | 0.00 | 87 | 1014.7 |
| 20260504050451 | 45 | 299 | 0.0 | 0.0 | 0.00 | 0.00 | 0.00 | 85 | 1015.4 |
| 20260504045948 | 46 | 299 | 0.0 | 0.0 | 0.00 | 0.00 | 0.00 | 85 | 1015.4 |
| 20260504045443 | 46 | 299 | 0.0 | 0.0 | 0.00 | 0.00 | 0.00 | 84 | 1015.4 |
| 20260504044940 | 46 | 299 | 0.0 | 0.0 | 0.00 | 0.00 | 0.00 | 83 | 1015.2 |
| 20260504044438 | 47 | 299 | 0.0 | 0.0 | 0.00 | 0.00 | 0.00 | 84 | 1015.3 |
| 20260504043935 | 47 | 299 | 0.0 | 0.0 | 0.00 | 0.00 | 0.00 | 85 | 1015.5 |
| 20260504043431 | 47 | 299 | 0.0 | 0.0 | 0.00 | 0.00 | 0.00 | 85 | 1015.4 |
| 20260504042929 | 46 | 299 | 0.0 | 0.0 | 0.00 | 0.00 | 0.00 | 85 | 1015.7 |
| 20260504042426 | 47 | 299 | 0.0 | 0.0 | 0.00 | 0.00 | 0.00 | 86 | 1015.7 |
| 20260504041922 | 47 | 299 | 0.0 | 0.0 | 0.00 | 0.00 | 0.00 | 85 | 1015.7 |
| 20260504041418 | 47 | 299 | 0.0 | 0.0 | 0.00 | 0.00 | 0.00 | 85 | 1015.6 |
| 20260504040914 | 47 | 299 | 0.0 | 0.0 | 0.00 | 0.00 | 0.00 | 85 | 1015.6 |
| 20260504040412 | 47 | 299 | 0.0 | 0.0 | 0.00 | 0.00 | 0.00 | 83 | 1015.5 |
| 20260504035907 | 48 | 299 | 0.0 | 0.0 | 0.00 | 0.00 | 0.00 | 82 | 1015.5 |
| 20260504035405 | 48 | 299 | 0.0 | 0.0 | 0.00 | 0.00 | 0.00 | 80 | 1015.6 |
| 20260504034901 | 48 | 299 | 0.0 | 0.0 | 0.00 | 0.00 | 0.00 | 79 | 1015.6 |
| 20260504034359 | 48 | 299 | 0.0 | 0.9 | 0.00 | 0.00 | 0.00 | 81 | 1015.6 |
| 20260504033855 | 48 | 299 | 0.0 | 0.0 | 0.00 | 0.00 | 0.00 | 83 | 1015.7 |
| 20260504033354 | 48 | 244 | 0.0 | 0.9 | 0.00 | 0.00 | 0.00 | 76 | 1015.8 |
| 20260504032850 | 48 | 245 | 0.0 | 0.0 | 0.00 | 0.00 | 0.00 | 78 | 1015.6 |
| 20260504032347 | 48 | 245 | 0.0 | 0.0 | 0.00 | 0.00 | 0.00 | 79 | 1015.5 |
| 20260504031844 | 48 | 245 | 0.0 | 0.0 | 0.00 | 0.00 | 0.00 | 78 | 1015.5 |
| 20260504031341 | 48 | 245 | 0.0 | 0.0 | 0.00 | 0.00 | 0.00 | 76 | 1015.8 |
| 20260504030837 | 48 | 245 | 0.0 | 0.0 | 0.00 | 0.00 | 0.00 | 76 | 1015.5 |
| 20260504030335 | 48 | 245 | 0.0 | 0.0 | 0.00 | 0.00 | 0.00 | 77 | 1015.6 |
| 20260504025831 | 48 | 245 | 0.0 | 0.0 | 0.00 | 0.00 | 0.00 | 80 | 1015.6 |
| 20260504025328 | 49 | 245 | 0.0 | 0.0 | 0.00 | 0.00 | 0.00 | 79 | 1015.8 |
| 20260504024825 | 49 | 245 | 0.0 | 0.0 | 0.00 | 0.00 | 0.00 | 78 | 1015.7 |
| 20260504024321 | 49 | 245 | 0.0 | 0.0 | 0.00 | 0.00 | 0.00 | 75 | 1015.8 |
| 20260504023818 | 49 | 245 | 0.0 | 0.0 | 0.00 | 0.00 | 0.00 | 76 | 1015.8 |
| 20260504023315 | 49 | 245 | 0.0 | 0.0 | 0.00 | 0.00 | 0.00 | 76 | 1015.6 |
| 20260504022810 | 49 | 245 | 0.0 | 0.0 | 0.00 | 0.00 | 0.00 | 78 | 1015.7 |
| 20260504022307 | 49 | 245 | 0.0 | 0.0 | 0.00 | 0.00 | 0.00 | 80 | 1015.5 |
| 20260504021803 | 49 | 245 | 0.0 | 0.0 | 0.00 | 0.00 | 0.00 | 80 | 1015.6 |
| 20260504021301 | 49 | 245 | 0.0 | 0.9 | 0.00 | 0.00 | 0.00 | 81 | 1015.7 |
| 20260504020758 | 49 | 244 | 0.0 | 0.0 | 0.00 | 0.00 | 0.00 | 76 | 1015.5 |
| 20260504020255 | 49 | 244 | 0.0 | 0.0 | 0.00 | 0.00 | 0.00 | 75 | 1015.6 |
| 20260504015750 | 49 | 244 | 0.0 | 0.0 | 0.00 | 0.00 | 0.00 | 76 | 1015.5 |
| 20260504015247 | 49 | 244 | 0.0 | 0.0 | 0.00 | 0.00 | 0.00 | 75 | 1015.6 |
| 20260504014743 | 49 | 244 | 0.0 | 0.0 | 0.00 | 0.00 | 0.00 | 75 | 1015.6 |
| 20260504014240 | 49 | 244 | 0.0 | 0.0 | 0.00 | 0.00 | 0.00 | 78 | 1015.7 |
| 20260504013737 | 50 | 244 | 0.0 | 0.0 | 0.00 | 0.00 | 0.00 | 79 | 1015.7 |
| 20260504013235 | 50 | 244 | 0.0 | 0.0 | 0.00 | 0.00 | 0.00 | 75 | 1015.5 |
| 20260504012731 | 50 | 244 | 0.0 | 0.0 | 0.00 | 0.00 | 0.00 | 73 | 1015.5 |
| 20260504012229 | 51 | 244 | 0.0 | 0.0 | 0.00 | 0.00 | 0.00 | 71 | 1015.6 |
| 20260504011726 | 51 | 244 | 0.0 | 0.0 | 0.00 | 0.00 | 0.00 | 67 | 1015.6 |
| 20260504011223 | 51 | 244 | 0.0 | 0.0 | 0.00 | 0.00 | 0.00 | 66 | 1015.6 |
| 20260504010719 | 51 | 244 | 0.0 | 0.0 | 0.00 | 0.00 | 0.00 | 66 | 1015.4 |
| 20260504010215 | 52 | 244 | 0.0 | 0.0 | 0.00 | 0.00 | 0.00 | 70 | 1015.6 |
| 20260504005711 | 52 | 244 | 0.0 | 0.0 | 0.00 | 0.00 | 0.00 | 65 | 1015.6 |
| 20260504005209 | 52 | 244 | 0.0 | 0.0 | 0.00 | 0.00 | 0.00 | 64 | 1015.7 |
| 20260504004706 | 52 | 244 | 0.0 | 0.0 | 0.00 | 0.00 | 0.00 | 64 | 1015.6 |
| 20260504004203 | 52 | 244 | 0.0 | 0.0 | 0.00 | 0.00 | 0.00 | 66 | 1015.7 |
| 20260504003700 | 52 | 244 | 0.0 | 0.0 | 0.00 | 0.00 | 0.00 | 65 | 1015.5 |
| 20260504003156 | 53 | 244 | 0.0 | 0.9 | 0.00 | 0.00 | 0.00 | 62 | 1015.4 |
| 20260504002653 | 53 | 244 | 0.9 | 0.9 | 0.00 | 0.00 | 0.00 | 60 | 1015.4 |
| 20260504002150 | 53 | 244 | 0.0 | 0.9 | 0.00 | 0.00 | 0.00 | 59 | 1015.5 |
| 20260504001648 | 54 | 244 | 0.9 | 1.7 | 0.00 | 0.00 | 0.00 | 56 | 1015.3 |
| 20260504001144 | 56 | 261 | 0.0 | 0.9 | 0.00 | 0.00 | 0.00 | 52 | 1015.3 |
| 20260504000641 | 57 | 261 | 0.9 | 1.7 | 0.00 | 0.00 | 0.00 | 41 | 1015.4 |
| 20260504000139 | 57 | 250 | 1.7 | 1.7 | 0.00 | 0.00 | 0.00 | 37 | 1015.4 |
| 20260503235637 | 57 | 279 | 1.7 | 2.6 | 0.00 | 0.00 | 0.00 | 37 | 1015.2 |
| 20260503235133 | 58 | 260 | 0.9 | 2.6 | 0.00 | 0.00 | 0.00 | 37 | 1015.3 |
| 20260503234631 | 58 | 246 | 1.7 | 3.5 | 0.00 | 0.00 | 0.00 | 36 | 1015.5 |
| 20260503234129 | 58 | 272 | 1.7 | 2.6 | 0.00 | 0.00 | 0.00 | 35 | 1015.5 |
| 20260503233626 | 58 | 250 | 0.9 | 2.6 | 0.00 | 0.00 | 0.00 | 38 | 1015.5 |
| 20260503233121 | 58 | 257 | 0.9 | 1.7 | 0.00 | 0.00 | 0.00 | 37 | 1015.6 |
| 20260503232619 | 58 | 251 | 0.9 | 2.6 | 0.00 | 0.00 | 0.00 | 37 | 1015.5 |
| 20260503232116 | 58 | 244 | 0.9 | 1.7 | 0.00 | 0.00 | 0.00 | 36 | 1015.5 |
| 20260503231614 | 58 | 263 | 1.7 | 3.5 | 0.00 | 0.00 | 0.00 | 37 | 1015.7 |
| 20260503231111 | 59 | 263 | 3.5 | 6.1 | 0.00 | 0.00 | 0.00 | 35 | 1015.6 |
| 20260503230608 | 59 | 231 | 3.5 | 11.3 | 0.00 | 0.00 | 0.00 | 36 | 1015.8 |
| 20260503230105 | 59 | 291 | 1.7 | 2.6 | 0.00 | 0.00 | 0.00 | 34 | 1015.7 |
| 20260503225603 | 60 | 298 | 1.7 | 6.1 | 0.00 | 0.00 | 0.00 | 33 | 1015.8 |
| 20260503225057 | 60 | 295 | 2.6 | 6.1 | 0.00 | 0.00 | 0.00 | 38 | 1015.7 |
| 20260503224555 | 60 | 223 | 3.5 | 5.2 | 0.00 | 0.00 | 0.00 | 33 | 1015.8 |
| 20260503224053 | 61 | 244 | 7.8 | 8.7 | 0.00 | 0.00 | 0.00 | 33 | 1015.9 |
| 20260503223550 | 62 | 313 | 5.2 | 6.1 | 0.00 | 0.00 | 0.00 | 33 | 1015.8 |
| 20260503223045 | 61 | 225 | 1.7 | 6.1 | 0.00 | 0.00 | 0.00 | 34 | 1015.7 |
| 20260503222544 | 61 | 309 | 4.3 | 6.1 | 0.00 | 0.00 | 0.00 | 37 | 1015.8 |
| 20260503222041 | 61 | 312 | 5.2 | 11.3 | 0.00 | 0.00 | 0.00 | 32 | 1015.9 |
| 20260503221539 | 61 | 302 | 5.2 | 7.8 | 0.00 | 0.00 | 0.00 | 34 | 1016.0 |
| 20260503221037 | 62 | 198 | 2.6 | 7.8 | 0.00 | 0.00 | 0.00 | 34 | 1015.8 |
| 20260503220533 | 61 | 167 | 0.9 | 3.5 | 0.00 | 0.00 | 0.00 | 32 | 1015.8 |
| 20260503220030 | 62 | 267 | 4.3 | 9.6 | 0.00 | 0.00 | 0.00 | 37 | 1015.9 |
| 20260503215527 | 62 | 312 | 3.5 | 7.0 | 0.00 | 0.00 | 0.00 | 35 | 1015.9 |